Weather History for Elmendorf AFB, AK

Change the Weather History Date:

Tuesday, February 5, 2013

  Actual Average Record
Temperature  
Mean Temperature 22 °F -  
Max Temperature 29 °F 22 °F 46 °F (2003)
Min Temperature 14 °F 8 °F -31 °F (1999)
Degree Days  
Heating Degree Days 44    
Moisture  
Dew Point 18 °F    
Average Humidity 89    
Maximum Humidity 95    
Minimum Humidity 64    
Precipitation  
Precipitation 0.00 in - - ()
Sea Level Pressure  
Sea Level Pressure 29.55 in    
Wind  
Wind Speed 0 mph (East)    
Max Wind Speed 5 mph    
Max Gust Speed -    
Visibility 8 miles    
Events      
Averages and records for this station are not official NWS values.
T = Trace of Precipitation, MM = Missing Value Source: NWS Daily Summary

Daily Weather History Graph

Daily Weather History Graph

Search for Another Location

Airport:

Trip Planner

Search our weather history database for the weather conditions in past years. The results will help you decide how hot, cold, wet, or windy it might be!

Date:

Astronomy

Feb. 05, 2013 Rise Set
Actual Time 9:08 AM AKST 5:19 PM AKST
Civil Twilight 8:20 AM AKST 6:07 PM AKST
Nautical Twilight 7:27 AM AKST 6:59 PM AKST
Astronomical Twilight 6:37 AM AKST 7:49 PM AKST
Moon 5:39 AM AKST (2/5) 12:06 PM AKST (2/5)
Length of Visible Light 9h 47m
Length of Day
8h 10m
Waning Crescent, 25% of the Moon is Illuminated
Feb 5
Waning Crescent
Feb 9
New
Feb 17
First Quarter
Feb 25
Full
Mar 4
Last Quarter

Hourly Weather History & Observations

Time (AKST) Temp. Windchill Dew Point Humidity Pressure Visibility Wind Dir Wind Speed Gust Speed Precip Events Conditions
12:55 AM 28.2 °F - 25.5 °F 90% 29.63 in 10.0 mi Calm Calm - N/A   Scattered Clouds
1:55 AM 21.7 °F - 19.4 °F 91% 29.62 in 10.0 mi Calm Calm - N/A   Clear
2:55 AM 20.8 °F - 19.4 °F 94% 29.62 in 10.0 mi Calm Calm - N/A   Clear
3:55 AM 20.1 °F - 18.5 °F 93% 29.61 in 10.0 mi Calm Calm - N/A   Mostly Cloudy
4:55 AM 19.6 °F - 18.0 °F 93% 29.60 in 10.0 mi Calm Calm - N/A   Overcast
5:55 AM 20.8 °F - 19.6 °F 95% 29.60 in 10.0 mi Calm Calm - N/A   Overcast
6:55 AM 21.7 °F - 19.8 °F 92% 29.59 in 10.0 mi Calm Calm - N/A   Overcast
7:55 AM 25.5 °F - 23.4 °F 92% 29.58 in 10.0 mi Calm Calm - N/A   Overcast
8:55 AM 25.7 °F - 23.0 °F 89% 29.58 in 10.0 mi Calm Calm - N/A   Overcast
9:55 AM 23.4 °F - 21.0 °F 91% 29.57 in 10.0 mi Calm Calm - N/A   Scattered Clouds
10:55 AM 25.3 °F - 23.7 °F 94% 29.57 in 10.0 mi Calm Calm - N/A   Clear
11:55 AM 27.5 °F 23.6 °F 23.4 °F 84% 29.56 in 10.0 mi East 3.5 mph - N/A   Clear
12:26 PM 28.4 °F - 23.0 °F 80% 29.58 in 10.0 mi Calm Calm - N/A   Mostly Cloudy
12:55 PM 28.0 °F 24.2 °F 23.7 °F 84% 29.56 in 10.0 mi ENE 3.5 mph - N/A   Clear
1:55 PM 29.1 °F 24.1 °F 22.8 °F 77% 29.55 in 10.0 mi NE 4.6 mph - N/A   Clear
2:55 PM 29.1 °F 24.1 °F 18.3 °F 64% 29.54 in 10.0 mi East 4.6 mph - N/A   Clear
3:55 PM 28.0 °F - 19.6 °F 71% 29.53 in 10.0 mi Calm Calm - N/A   Clear
4:55 PM 27.7 °F - 24.3 °F 87% 29.53 in 10.0 mi Calm Calm - N/A   Overcast
5:55 PM 20.8 °F - 19.6 °F 95% 29.52 in 10.0 mi Calm Calm - N/A   Partly Cloudy
6:55 PM 18.7 °F - 16.9 °F 93% 29.52 in 10.0 mi Calm Calm - N/A   Clear
7:55 PM 20.5 °F - 19.0 °F 94% 29.51 in 10.0 mi Calm Calm - N/A   Clear
8:39 PM 14.0 °F - 12.2 °F 93% 29.51 in 2.0 mi Calm Calm - N/A   Clear
8:40 PM 15.8 °F - 12.2 °F 86% 29.51 in 1.5 mi Calm Calm - N/A   Clear
8:41 PM 15.8 °F - 14.0 °F 93% 29.51 in 7.0 mi Calm Calm - N/A   Scattered Clouds
8:46 PM 14.0 °F - 12.2 °F 93% 29.51 in 1.0 mi Calm Calm - N/A   Clear
8:47 PM 14.0 °F - 12.2 °F 93% 29.51 in 1.2 mi Calm Calm - N/A   Clear
8:48 PM 14.0 °F - 12.2 °F 93% 29.51 in 1.5 mi Calm Calm - N/A   Clear
8:49 PM 14.0 °F - 12.2 °F 93% 29.51 in 7.0 mi Calm Calm - N/A   Scattered Clouds
8:55 PM 14.4 °F - 12.0 °F 90% 29.51 in 7.0 mi Calm Calm - N/A   Scattered Clouds
9:55 PM 15.6 °F 8.3 °F 13.5 °F 91% 29.50 in 9.0 mi East 4.6 mph - N/A   Partly Cloudy
10:55 PM 16.0 °F - 13.5 °F 90% 29.51 in 10.0 mi Calm Calm - N/A   Clear
11:04 PM 15.8 °F - 14.0 °F 93% 29.51 in 10.0 mi Calm Calm - N/A   Partly Cloudy
11:26 PM 17.6 °F - 15.8 °F 93% 29.51 in 10.0 mi Calm Calm - N/A   Mostly Cloudy
11:40 PM 19.4 °F - 17.6 °F 93% 29.51 in 10.0 mi Calm Calm - N/A   Scattered Clouds
11:55 PM 19.2 °F - 17.8 °F 94% 29.51 in 10.0 mi Calm Calm - N/A   Scattered Clouds